FENGYUN 1C DEB, 37453

Orbit data source: Space-Track

FENGYUN 1C DEB, 37453 is space debris in SSO originally from a launch on Mon, 10 May 1999 UTC launched from the Taiyaun Space Center, China (TSC). Fengyun 1C debris stems from the Chinese weather satellite Fengyun-1C, which was intentionally destroyed by a Chinese anti-satellite missile in 2007. This event dramatically increased the amount of space debris, with thousands of trackable fragments posing hazards to satellites and human spaceflight. The Fengyun 1C debris cloud has become a focal point in discussions about space sustainability and the need for international regulations to prevent the creation of new debris.

Loading next visibility...
Identifier
37453, 1999-025EHX
Orbit
SSO
Country
Flag of CNCN / PRC
Related business
Manufacturer
Unknown
Mission
Spacecraft
Bus & Motor
Unknown
Mass
Unknown
Launch date (UTC)
1999-05-10 (27 years ago)
Launch vehicle
Unknown
Launch site
Taiyaun Space Center, China (TSC)
Object type
Payload
Rocket body
Debris
Shape & HBR
Unknown shape, 0.1 m
Radar Cross Section
Small (<0.1 m²)

Expand to show TLE details & history
Last TLE update: 6 days ago

TLE from 6 days ago
0 FENGYUN 1C DEB
1 37453U 99025EHX 26139.52362185  .00002067  00000-0  15699-2 0  9997
2 37453  97.6353  48.4853 0358065 171.8173 188.9037 13.68287439917828
Epoch: 2026-05-19T12:34Z
TLE epoch observation values (Epoch: 2026-05-19T12:34:00.927Z)
Latitude
-0.00005°
Longitude
-17.21486°
Altitude
1,270.076 km
Speed
7.092 km/s
True Right ascension
03h 13m 56s
True Declination
0° 00' 00"
Sunlit
Object was in daylight at epoch
Visualization orbit readout
Latitude
Unknown
Longitude
Unknown
Altitude
Unknown
Speed
Unknown
Apparent Right ascension
Unknown
Apparent Declination
Unknown
Sunlit
N/A
Visualization observer readout
Local Sidereal Time
15:52:15
Azimuth
Unknown
Elevation
Unknown
Doppler factor
Unknown
Orbital elements
Apogee altitude
1,267.19 km
Perigee altitude
738.612 km
Semi-major axis
7,381.038 km
Eccentricity
0.03581
Inclination
97.6353°
RAAN
48.4853°
Arg. of periapsis
171.8173°
True anomaly
188.29559°
Mean anomaly
188.9037°
Eccentric anomaly
188.59702°
Mean motion
3.42269 °/min
Orbital period
105.18 mins
BSTAR
0.0015699
Loading maneuver chart data...
Computing Atmospheric mass density...

Documentation

Showing up to 5 results
|